| time (UTC) | temp F | wind direction | speed MPH | gust MPH | rain 1hr in | rain 24hr in | rain mn in | humidity % | barometer mb |
| 20260904093915 | 308 | 303 | 0.0 | 6.0 | 0.00 | 0.00 | 0.00 | 8 | 5318.5 |
| 20260904093509 | -29 | 292 | 0.0 | 2.0 | 0.00 | 0.00 | 0.00 | 8 | 5318.5 |
| 20260904093310 | 325 | 292 | 0.0 | 2.0 | 0.00 | 0.00 | 0.00 | 9 | 5318.5 |
| 20260904093104 | 714 | 315 | 1.0 | 2.0 | 0.00 | 0.00 | 0.00 | 9 | 4420.8 |
| 20260904091852 | -70 | 0 | 2.0 | 2.0 | 0.00 | 0.00 | 0.00 | 9 | 5318.5 |
| 20260904091448 | -15 | 315 | 3.0 | 3.0 | 0.00 | 0.00 | 0.00 | 9 | 5318.5 |
| 20260904090640 | 715 | 315 | 3.0 | 3.0 | 0.00 | 0.00 | 0.00 | 9 | 1799.4 |
| 20260904090438 | 189 | 315 | 2.0 | 3.0 | 0.00 | 0.00 | 0.00 | 9 | 5318.5 |
| 20260904085629 | 299 | 337 | 1.0 | 1.0 | 0.00 | 0.00 | 0.00 | 8 | 5318.5 |
| 20260904085428 | 260 | 337 | 1.0 | 2.0 | 0.00 | 0.00 | 0.00 | 8 | 5318.5 |
| 20260904085025 | 316 | 337 | 1.0 | 2.0 | 0.00 | 0.00 | 0.00 | 8 | 5318.5 |
| 20260904084215 | -22 | 337 | 2.0 | 2.0 | 0.00 | 0.00 | 0.00 | 8 | 5318.5 |
| 20260904083204 | -24 | 337 | 3.0 | 3.0 | 0.00 | 0.00 | 0.00 | 8 | 5318.5 |
| 20260904083003 | 697 | 337 | 3.0 | 3.0 | 0.00 | 0.00 | 0.00 | 8 | 5318.5 |
| 20260904082357 | 860 | 337 | 1.0 | 2.0 | 0.00 | 0.00 | 0.00 | 10 | 5318.5 |
| 20260904081952 | 141 | 337 | 1.0 | 2.0 | 0.00 | 0.00 | 0.00 | 12 | 5318.5 |
| 20260904081548 | 196 | 337 | 2.0 | 3.0 | 0.00 | 0.00 | 0.00 | 13 | 5318.5 |
| 20260904081347 | 290 | 337 | 2.0 | 3.0 | 0.00 | 0.00 | 0.00 | 13 | 5318.5 |
| 20260904081143 | 715 | 337 | 1.0 | 1.0 | 0.00 | 0.00 | 0.00 | 12 | 4420.8 |
| 20260904080941 | -30 | 315 | 0.0 | 1.0 | 0.00 | 0.00 | 0.00 | 12 | 5318.5 |
| 20260904080537 | 715 | 315 | 1.0 | 1.0 | 0.00 | 0.00 | 0.00 | 13 | 4420.8 |
| 20260904075931 | -23 | 315 | 1.0 | 2.0 | 0.00 | 0.00 | 0.00 | 14 | 5318.5 |
| 20260904075325 | -88 | 315 | 2.0 | 2.0 | 0.00 | 0.00 | 0.00 | 14 | 5318.5 |
| 20260904074921 | -33 | 292 | 0.0 | 1.0 | 0.00 | 0.00 | 0.00 | 14 | 5318.5 |
| 20260904074517 | 216 | 337 | 1.0 | 1.0 | 0.00 | 0.00 | 0.00 | 14 | 5318.5 |
| 20260904073506 | 715 | 337 | 1.0 | 2.0 | 0.00 | 0.00 | 0.00 | 15 | 1799.4 |
| 20260904073102 | 281 | 337 | 1.0 | 2.0 | 0.00 | 0.00 | 0.00 | 16 | 5318.5 |
| 20260904072456 | 297 | 337 | 2.0 | 2.0 | 0.00 | 0.00 | 0.00 | 16 | 5318.5 |
| 20260904071445 | 49 | 292 | 1.0 | 1.0 | 0.00 | 0.00 | 0.00 | 20 | 5318.5 |
| 20260904070839 | -13 | 292 | 0.0 | 1.0 | 0.00 | 0.00 | 0.00 | 20 | 5318.5 |
| 20260904070637 | -42 | 292 | 0.0 | 1.0 | 0.00 | 0.00 | 0.00 | 21 | 5318.5 |
| 20260904070435 | -81 | 303 | 0.0 | 0.0 | 0.00 | 0.00 | 0.00 | 21 | 5318.5 |
| 20260904065628 | 161 | 292 | 0.0 | 0.0 | 0.00 | 0.00 | 0.00 | 22 | 5318.5 |
| 20260904064616 | 233 | 337 | 0.0 | 1.0 | 0.00 | 0.00 | 0.00 | 21 | 5318.5 |
| 20260904064414 | 327 | 337 | 0.0 | 2.0 | 0.00 | 0.00 | 0.00 | 21 | 5318.5 |
| 20260904064213 | 288 | 337 | 0.0 | 2.0 | 0.00 | 0.00 | 0.00 | 20 | 5318.5 |
| 20260904063809 | -31 | 337 | 1.0 | 2.0 | 0.00 | 0.00 | 0.00 | 22 | 5318.5 |
| 20260904063606 | 715 | 337 | 1.0 | 2.0 | 0.00 | 0.00 | 0.00 | 22 | 1799.3 |
| 20260904063203 | -16 | 337 | 1.0 | 2.0 | 0.00 | 0.00 | 0.00 | 23 | 5318.5 |
| 20260904063000 | 715 | 315 | 2.0 | 2.0 | 0.00 | 0.00 | 0.00 | 23 | 4420.8 |
| 20260904062355 | -52 | 270 | 1.0 | 2.0 | 0.00 | 0.00 | 0.00 | 23 | 5318.5 |
| 20260904060939 | 141 | 270 | 0.0 | 1.0 | 0.00 | 0.00 | 0.00 | 23 | 5318.5 |
| 20260904060535 | 196 | 270 | 0.0 | 0.0 | 0.00 | 0.00 | 0.00 | 22 | 5318.5 |
| 20260904060132 | 715 | 292 | 0.0 | 1.0 | 0.00 | 0.00 | 0.00 | 22 | 1799.4 |
| 20260904055929 | -30 | 315 | 0.0 | 2.0 | 0.00 | 0.00 | 0.00 | 22 | 5318.5 |
| 20260904054914 | -26 | 337 | 2.0 | 3.0 | 0.00 | 0.00 | 0.00 | 21 | 403.3 |
| 20260904053903 | -56 | 337 | 2.0 | 2.0 | 0.00 | 0.00 | 0.00 | 19 | 5318.5 |
| 20260904053257 | 927 | 337 | 1.0 | 1.0 | 0.00 | 0.00 | 0.00 | 18 | 5318.5 |
| 20260904053056 | 538 | 337 | 1.0 | 2.0 | 0.00 | 0.00 | 0.00 | 18 | 5318.5 |
| 20260904052046 | 715 | 337 | 1.0 | 1.0 | 0.00 | 0.00 | 0.00 | 17 | 1799.4 |
| 20260904051035 | -32 | 337 | 2.0 | 3.0 | 0.00 | 0.00 | 0.00 | 17 | 5318.5 |
| 20260904050428 | -17 | 337 | 2.0 | 2.0 | 0.00 | 0.00 | 0.00 | 17 | 5318.5 |
| 20260904050226 | -21 | 337 | 1.0 | 1.0 | 0.00 | 0.00 | 0.00 | 18 | 5318.5 |
| 20260904045620 | 715 | 337 | 1.0 | 2.0 | 0.00 | 0.00 | 0.00 | 17 | 4420.8 |
| 20260904045418 | 715 | 292 | 1.0 | 2.0 | 0.00 | 0.00 | 0.00 | 18 | 488.7 |
| 20260904044606 | 124 | 292 | 1.0 | 2.0 | 0.00 | 0.00 | 0.00 | 18 | 5318.5 |
| 20260904044404 | 860 | 292 | 1.0 | 4.0 | 0.00 | 0.00 | 0.00 | 18 | 5318.5 |
| 20260904044202 | 715 | 292 | 1.0 | 5.0 | 0.00 | 0.00 | 0.00 | 18 | 1799.4 |
| 20260904043152 | 251 | 337 | 5.0 | 6.0 | 0.00 | 0.00 | 0.00 | 19 | 5318.5 |
| 20260904042344 | -29 | 337 | 5.0 | 9.0 | 0.00 | 0.00 | 0.00 | 19 | 5318.5 |
| 20260904042142 | -19 | 337 | 7.0 | 8.0 | 0.00 | 0.00 | 0.00 | 20 | 5318.5 |
| 20260904041131 | 715 | 337 | 4.0 | 5.0 | 0.00 | 0.00 | 0.00 | 21 | 1799.4 |
| 20260904040930 | -33 | 337 | 4.0 | 5.0 | 0.00 | 0.00 | 0.00 | 21 | 5318.5 |
| 20260904035313 | 187 | 292 | 4.0 | 4.0 | 0.00 | 0.00 | 0.00 | 23 | 5318.5 |
| 20260904034909 | 242 | 337 | 3.0 | 4.0 | 0.00 | 0.00 | 0.00 | 23 | 5318.5 |
| 20260904034707 | -31 | 292 | 3.0 | 4.0 | 0.00 | 0.00 | 0.00 | 23 | 5318.5 |
| 20260904033454 | 714 | 337 | 3.0 | 4.0 | 0.00 | 0.00 | 0.00 | 23 | 4420.8 |
| 20260904032441 | -95 | 337 | 1.0 | 2.0 | 0.00 | 0.00 | 0.00 | 23 | 5318.5 |
| 20260904031835 | 538 | 337 | 2.0 | 2.0 | 0.00 | 0.00 | 0.00 | 23 | 5318.5 |
| 20260904031633 | 147 | 337 | 2.0 | 3.0 | 0.00 | 0.00 | 0.00 | 23 | 5318.5 |
| 20260904030825 | 258 | 337 | 2.0 | 3.0 | 0.00 | 0.00 | 0.00 | 23 | 5318.5 |
| 20260904030623 | 219 | 337 | 2.0 | 3.0 | 0.00 | 0.00 | 0.00 | 23 | 5318.5 |
| 20260904030420 | 715 | 337 | 2.0 | 3.0 | 0.00 | 0.00 | 0.00 | 23 | 1799.1 |
| 20260904030219 | 715 | 337 | 2.0 | 3.0 | 0.00 | 0.00 | 0.00 | 22 | 1799.4 |
| 20260904030016 | -28 | 315 | 3.0 | 4.0 | 0.00 | 0.00 | 0.00 | 22 | 5318.5 |
| 20260904025207 | 715 | 337 | 3.0 | 5.0 | 0.00 | 0.00 | 0.00 | 22 | 4420.8 |
| 20260904024602 | -15 | 337 | 3.0 | 4.0 | 0.00 | 0.00 | 0.00 | 22 | 5318.5 |
| 20260904023552 | 446 | 337 | 2.0 | 3.0 | 0.00 | 0.00 | 0.00 | 22 | 5318.5 |
| 20260904023149 | 715 | 337 | 3.0 | 4.0 | 0.00 | 0.00 | 0.00 | 23 | 1799.3 |
| 20260904021531 | 320 | 337 | 4.0 | 5.0 | 0.00 | 0.00 | 0.00 | 22 | 5318.5 |
| 20260904020929 | 715 | 337 | 3.0 | 4.0 | 0.00 | 0.00 | 0.00 | 23 | 4420.6 |
| 20260904015914 | -11 | 337 | 4.0 | 4.0 | 0.00 | 0.00 | 0.00 | 23 | 5318.5 |
| 20260904015309 | 715 | 270 | 3.0 | 4.0 | 0.00 | 0.00 | 0.00 | 23 | 1799.4 |
| 20260904014903 | 715 | 270 | 2.0 | 2.0 | 0.00 | 0.00 | 0.00 | 23 | 4420.8 |
| 20260904013853 | 295 | 315 | 3.0 | 3.0 | 0.00 | 0.00 | 0.00 | 23 | 5318.5 |
| 20260904013449 | -30 | 315 | 2.0 | 5.0 | 0.00 | 0.00 | 0.00 | 23 | 5318.5 |
| 20260904013045 | 715 | 337 | 5.0 | 5.0 | 0.00 | 0.00 | 0.00 | 23 | 1799.4 |
| 20260904012642 | -19 | 337 | 4.0 | 4.0 | 0.00 | 0.00 | 0.00 | 23 | 5318.5 |
| 20260904012236 | -13 | 337 | 3.0 | 4.0 | 0.00 | 0.00 | 0.00 | 23 | 5318.5 |
| 20260904012039 | -17 | 337 | 3.0 | 3.0 | 0.00 | 0.00 | 0.00 | 23 | 5318.5 |
| 20260904011832 | 715 | 337 | 2.0 | 3.0 | 0.00 | 0.00 | 0.00 | 23 | 1799.4 |
| 20260904011631 | -31 | 337 | 2.0 | 3.0 | 0.00 | 0.00 | 0.00 | 23 | 5318.5 |
| 20260904011226 | -67 | 337 | 2.0 | 2.0 | 0.00 | 0.00 | 0.00 | 24 | 5318.5 |
| 20260904011024 | 262 | 337 | 2.0 | 2.0 | 0.00 | 0.00 | 0.00 | 24 | 5318.5 |
| 20260904010221 | 136 | 337 | 1.0 | 1.0 | 0.00 | 0.00 | 0.00 | 23 | 5318.5 |
| 20260904005611 | 285 | 337 | 0.0 | 2.0 | 0.00 | 0.00 | 0.00 | 23 | 5318.5 |
| 20260904005407 | 247 | 337 | 1.0 | 3.0 | 0.00 | 0.00 | 0.00 | 23 | 5318.5 |
| 20260904002943 | -77 | 337 | 1.0 | 2.0 | 0.00 | 0.00 | 0.00 | 24 | 5318.5 |
| 20260904002135 | 166 | 315 | 2.0 | 3.0 | 0.00 | 0.00 | 0.00 | 24 | 5318.5 |
| 20260904001943 | 127 | 315 | 2.0 | 3.0 | 0.00 | 0.00 | 0.00 | 25 | 5318.5 |
| 20260904001529 | 182 | 337 | 3.0 | 3.0 | 0.00 | 0.00 | 0.00 | 25 | 5318.5 |
| 20260904001326 | 276 | 337 | 3.0 | 3.0 | 0.00 | 0.00 | 0.00 | 25 | 5318.5 |
| 20260904001129 | 237 | 337 | 3.0 | 3.0 | 0.00 | 0.00 | 0.00 | 25 | 5318.5 |
| 20260903235911 | 715 | 337 | 2.0 | 2.0 | 0.00 | 0.00 | 0.00 | 25 | 1799.3 |
| 20260903235508 | -19 | 315 | 2.0 | 2.0 | 0.00 | 0.00 | 0.00 | 25 | 5318.5 |
| 20260903235307 | 715 | 315 | 1.0 | 4.0 | 0.00 | 0.00 | 0.00 | 26 | 1799.4 |
| 20260903234901 | -47 | 337 | 2.0 | 4.0 | 0.00 | 0.00 | 0.00 | 26 | 5318.5 |
| 20260903234255 | 101 | 337 | 3.0 | 4.0 | 0.00 | 0.00 | 0.00 | 26 | 5318.5 |
| 20260903233851 | 157 | 337 | 3.0 | 4.0 | 0.00 | 0.00 | 0.00 | 26 | 5318.5 |
| 20260903233447 | 212 | 337 | 3.0 | 3.0 | 0.00 | 0.00 | 0.00 | 26 | 403.4 |
| 20260903233042 | 49 | 337 | 2.0 | 2.0 | 0.00 | 0.00 | 0.00 | 26 | 5318.5 |
| 20260903232639 | 715 | 337 | 1.0 | 1.0 | 0.00 | 0.00 | 0.00 | 27 | 1799.4 |
| 20260903232438 | 283 | 337 | 1.0 | 1.0 | 0.00 | 0.00 | 0.00 | 26 | 5318.5 |
| 20260903232235 | -27 | 337 | 1.0 | 1.0 | 0.00 | 0.00 | 0.00 | 26 | 5318.5 |
| 20260903231830 | -22 | 337 | 1.0 | 2.0 | 0.00 | 0.00 | 0.00 | 27 | 5318.5 |
| 20260903231628 | -26 | 337 | 2.0 | 3.0 | 0.00 | 0.00 | 0.00 | 27 | 5318.5 |
| 20260903231427 | 715 | 337 | 2.0 | 3.0 | 0.00 | 0.00 | 0.00 | 27 | 1799.4 |
| 20260903231027 | -11 | 326 | 3.0 | 4.0 | 0.00 | 0.00 | 0.00 | 27 | 5318.5 |
| 20260903230618 | -56 | 315 | 3.0 | 3.0 | 0.00 | 0.00 | 0.00 | 27 | 5318.5 |
| 20260903230012 | 715 | 337 | 3.0 | 4.0 | 0.00 | 0.00 | 0.00 | 27 | 1799.4 |
| 20260903225607 | 715 | 337 | 3.0 | 4.0 | 0.00 | 0.00 | 0.00 | 28 | 1799.4 |
| 20260903225406 | 109 | 337 | 3.0 | 3.0 | 0.00 | 0.00 | 0.00 | 29 | 5318.5 |
| 20260903220513 | 235 | 270 | 3.0 | 3.0 | 0.00 | 0.00 | 0.00 | 28 | 5318.5 |
| 20260903215301 | -25 | 315 | 4.0 | 5.0 | 0.00 | 0.00 | 0.00 | 28 | 5318.5 |
| 20260903213442 | -72 | 0 | 4.0 | 4.0 | 0.00 | 0.00 | 0.00 | 28 | 5318.5 |
| 20260903202531 | -31 | 315 | 8.0 | 8.0 | 0.00 | 0.00 | 0.00 | 26 | 5318.5 |
| 20260903202128 | -25 | 315 | 7.0 | 7.0 | 0.00 | 0.00 | 0.00 | 25 | 5318.5 |
| 20260903200511 | 714 | 337 | 8.0 | 8.0 | 0.00 | 0.00 | 0.00 | 25 | 4420.7 |
| 20260903193846 | 32 | 315 | 5.0 | 6.0 | 0.00 | 0.00 | 0.00 | 23 | 5318.5 |
| 20260903193643 | 49 | 315 | 6.0 | 6.0 | 0.00 | 0.00 | 0.00 | 23 | 5318.5 |
| 20260903192227 | 715 | 315 | 5.0 | 5.0 | 0.00 | 0.00 | 0.00 | 22 | 1799.4 |
| 20260903191823 | 143 | 348 | 3.0 | 5.0 | 0.00 | 0.00 | 0.00 | 22 | 5318.5 |
| 20260903191419 | 715 | 315 | 4.0 | 6.0 | 0.00 | 0.00 | 0.00 | 22 | 488.7 |
| 20260903190408 | 270 | 0 | 4.0 | 6.0 | 0.00 | 0.00 | 0.00 | 21 | 5318.5 |
| 20260903185358 | 715 | 315 | 4.0 | 5.0 | 0.00 | 0.00 | 0.00 | 20 | 4420.8 |
| 20260903185157 | 715 | 0 | 5.0 | 6.0 | 0.00 | 0.00 | 0.00 | 18 | 1799.4 |
| 20260903184348 | -10 | 315 | 4.0 | 6.0 | 0.00 | 0.00 | 0.00 | 17 | 5318.5 |
| 20260903184149 | -15 | 0 | 4.0 | 5.0 | 0.00 | 0.00 | 0.00 | 17 | 5318.5 |
| 20260903182934 | 715 | 315 | 3.0 | 5.0 | 0.00 | 0.00 | 0.00 | 15 | 1799.4 |
| 20260903182534 | 205 | 315 | 3.0 | 4.0 | 0.00 | 0.00 | 0.00 | 14 | 1714.1 |
| 20260903182125 | 260 | 315 | 2.0 | 3.0 | 0.00 | 0.00 | 0.00 | 13 | 5318.5 |
| 20260903181923 | -30 | 270 | 1.0 | 3.0 | 0.00 | 0.00 | 0.00 | 13 | 5318.5 |
| 20260903181317 | -28 | 0 | 2.0 | 3.0 | 0.00 | 0.00 | 0.00 | 12 | 5318.5 |
| 20260903180913 | -22 | 270 | 1.0 | 2.0 | 0.00 | 0.00 | 0.00 | 12 | 5318.5 |
| 20260903180306 | -79 | 315 | 1.0 | 3.0 | 0.00 | 0.00 | 0.00 | 11 | 5318.5 |
| 20260903180104 | -11 | 315 | 2.0 | 3.0 | 0.00 | 0.00 | 0.00 | 11 | 5318.5 |
| 20260903175903 | -24 | 315 | 2.0 | 3.0 | 0.00 | 0.00 | 0.00 | 10 | 5318.5 |
| 20260903175701 | 697 | 315 | 2.0 | 4.0 | 0.00 | 0.00 | 0.00 | 10 | 5318.5 |
| 20260903175458 | 715 | 270 | 3.0 | 4.0 | 0.00 | 0.00 | 0.00 | 10 | 1799.4 |
| 20260903174852 | 180 | 270 | 3.0 | 3.0 | 0.00 | 0.00 | 0.00 | 10 | 5318.5 |
| 20260903173437 | 306 | 270 | 4.0 | 5.0 | 0.00 | 0.00 | 0.00 | 9 | 5318.5 |
| 20260903173235 | 49 | 270 | 4.0 | 5.0 | 0.00 | 0.00 | 0.00 | 8 | 5318.5 |
| 20260903173033 | -29 | 270 | 4.0 | 5.0 | 0.00 | 0.00 | 0.00 | 9 | 5318.5 |
| 20260903172633 | -23 | 270 | 4.0 | 4.0 | 0.00 | 0.00 | 0.00 | 8 | 5318.5 |
| 20260903172427 | -14 | 270 | 4.0 | 4.0 | 0.00 | 0.00 | 0.00 | 9 | 5318.5 |
| 20260903172023 | -88 | 270 | 3.0 | 5.0 | 0.00 | 0.00 | 0.00 | 8 | 5318.5 |
| 20260903171619 | 715 | 270 | 3.0 | 3.0 | 0.00 | 0.00 | 0.00 | 8 | 4420.9 |
| 20260903171416 | -72 | 292 | 2.0 | 4.0 | 0.00 | 0.00 | 0.00 | 8 | 5318.5 |
| 20260903171214 | 216 | 315 | 3.0 | 4.0 | 0.00 | 0.00 | 0.00 | 7 | 5318.5 |
| 20260903171012 | 115 | 270 | 3.0 | 4.0 | 0.00 | 0.00 | 0.00 | 6 | 5318.5 |
| 20260903170406 | 132 | 315 | 3.0 | 6.0 | 0.00 | 0.00 | 0.00 | 5 | 5318.5 |
| 20260903170204 | 226 | 315 | 4.0 | 5.0 | 0.00 | 0.00 | 0.00 | 6 | 5318.5 |
| 20260903165558 | 242 | 315 | 5.0 | 6.0 | 0.00 | 0.00 | 0.00 | 5 | 5318.5 |
| 20260903165157 | 297 | 315 | 5.0 | 6.0 | 0.00 | 0.00 | 0.00 | 5 | 5318.5 |
| 20260903164959 | 715 | 315 | 5.0 | 8.0 | 0.00 | 0.00 | 0.00 | 5 | 4420.9 |
| 20260903164548 | 715 | 292 | 5.0 | 5.0 | 0.00 | 0.00 | 0.00 | 5 | 1799.4 |
| 20260903164345 | -24 | 315 | 3.0 | 6.0 | 0.00 | 0.00 | 0.00 | 5 | 5318.5 |
| 20260903163942 | -19 | 270 | 3.0 | 5.0 | 0.00 | 0.00 | 0.00 | 5 | 5318.5 |
| 20260903162524 | 538 | 270 | 4.0 | 5.0 | 0.00 | 0.00 | 0.00 | 6 | 5318.5 |
| 20260903162322 | 147 | 315 | 4.0 | 5.0 | 0.00 | 0.00 | 0.00 | 6 | 5318.5 |
| 20260903162120 | 109 | 270 | 4.0 | 5.0 | 0.00 | 0.00 | 0.00 | 6 | 5318.5 |
| 20260903161918 | 203 | 315 | 3.0 | 5.0 | 0.00 | 0.00 | 0.00 | 6 | 5318.5 |
| 20260903161314 | 715 | 270 | 3.0 | 7.0 | 0.00 | 0.00 | 0.00 | 6 | 1799.3 |
| 20260903161109 | 313 | 315 | 6.0 | 7.0 | 0.00 | 0.00 | 0.00 | 6 | 5318.5 |
| 20260903160907 | 715 | 315 | 5.0 | 5.0 | 0.00 | 0.00 | 0.00 | 6 | 1799.4 |
| 20260903160504 | -32 | 315 | 4.0 | 6.0 | 0.00 | 0.00 | 0.00 | 6 | 5318.5 |
| 20260903155858 | 715 | 315 | 6.0 | 8.0 | 0.00 | 0.00 | 0.00 | 6 | 1799.3 |
| 20260903155453 | 715 | 315 | 7.0 | 9.0 | 0.00 | 0.00 | 0.00 | 6 | 4420.8 |
| 20260903155254 | -15 | 270 | 7.0 | 8.0 | 0.00 | 0.00 | 0.00 | 6 | 5318.5 |
| 20260903155049 | -65 | 270 | 5.0 | 7.0 | 0.00 | 0.00 | 0.00 | 6 | 5318.5 |
| 20260903154846 | 714 | 315 | 6.0 | 6.0 | 0.00 | 0.00 | 0.00 | 7 | 4420.7 |
| 20260903154649 | -10 | 315 | 2.0 | 3.0 | 0.00 | 0.00 | 0.00 | 8 | 5318.5 |
| 20260903154442 | 715 | 315 | 3.0 | 3.0 | 0.00 | 0.00 | 0.00 | 8 | 1799.4 |
| 20260903154242 | -31 | 315 | 1.0 | 6.0 | 0.00 | 0.00 | 0.00 | 7 | 5318.5 |
| 20260903153841 | 998 | 270 | 6.0 | 6.0 | 0.00 | 0.00 | 0.00 | 8 | 5318.5 |
| 20260903153434 | 155 | 270 | 3.0 | 6.0 | 0.00 | 0.00 | 0.00 | 8 | 5318.5 |
| 20260903153231 | 49 | 315 | 3.0 | 6.0 | 0.00 | 0.00 | 0.00 | 8 | 5318.5 |
| 20260903153028 | 210 | 270 | 4.0 | 7.0 | 0.00 | 0.00 | 0.00 | 8 | 5318.5 |
| 20260903152826 | 304 | 270 | 6.0 | 7.0 | 0.00 | 0.00 | 0.00 | 8 | 5318.5 |
| 20260903152624 | 715 | 303 | 7.0 | 7.0 | 0.00 | 0.00 | 0.00 | 8 | 1799.3 |
| 20260903152422 | -29 | 315 | 7.0 | 7.0 | 0.00 | 0.00 | 0.00 | 9 | 5318.5 |
| 20260903151816 | 49 | 270 | 3.0 | 6.0 | 0.00 | 0.00 | 0.00 | 8 | 5318.5 |
| 20260903151209 | -13 | 315 | 7.0 | 7.0 | 0.00 | 0.00 | 0.00 | 9 | 4010.3 |
| 20260903151011 | -16 | 315 | 2.0 | 6.0 | 0.00 | 0.00 | 0.00 | 9 | 5318.5 |
| 20260903150805 | -75 | 315 | 6.0 | 6.0 | 0.00 | 0.00 | 0.00 | 10 | 5318.5 |
| 20260903150404 | -19 | 270 | 5.0 | 5.0 | 0.00 | 0.00 | 0.00 | 10 | 1714.1 |
| 20260903144340 | 256 | 315 | 5.0 | 10.0 | 0.00 | 0.00 | 0.00 | 10 | 5318.5 |
| 20260903143936 | 311 | 315 | 8.0 | 12.0 | 0.00 | 0.00 | 0.00 | 10 | 5318.5 |
| 20260903143735 | -24 | 315 | 9.0 | 12.0 | 0.00 | 0.00 | 0.00 | 10 | 5320.2 |
| 20260903143533 | -28 | 315 | 11.0 | 12.0 | 0.00 | 0.00 | 0.00 | 10 | 5318.5 |
| 20260903143330 | -19 | 292 | 6.0 | 8.0 | 0.00 | 0.00 | 0.00 | 10 | 5318.5 |
| 20260903142926 | -13 | 292 | 6.0 | 10.0 | 0.00 | 0.00 | 0.00 | 10 | 5318.5 |
| 20260903142727 | 715 | 315 | 7.0 | 10.0 | 0.00 | 0.00 | 0.00 | 10 | 4420.8 |
| 20260903141542 | 258 | 315 | 9.0 | 10.0 | 0.00 | 0.00 | 0.00 | 11 | 5318.5 |
| 20260903141339 | 219 | 315 | 5.0 | 5.0 | 0.00 | 0.00 | 0.00 | 11 | 5318.5 |
| 20260903141137 | 313 | 315 | 3.0 | 9.0 | 0.00 | 0.00 | 0.00 | 12 | 5318.5 |
| 20260903140010 | -17 | 270 | 4.0 | 7.0 | 0.00 | 0.00 | 0.00 | 13 | 5318.5 |
| 20260903135925 | -17 | 270 | 4.0 | 7.0 | 0.00 | 0.00 | 0.00 | 13 | 5318.5 |
| 20260903134916 | 715 | 270 | 3.0 | 4.0 | 0.00 | 0.00 | 0.00 | 14 | 4420.8 |
| 20260903134311 | 446 | 292 | 10.0 | 11.0 | 0.00 | 0.00 | 0.00 | 13 | 5318.5 |
| 20260903133934 | 237 | 270 | 0.0 | 11.0 | 0.00 | 0.00 | 0.00 | 14 | 5318.5 |
| 20260903133531 | 293 | 315 | 4.0 | 10.0 | 0.00 | 0.00 | 0.00 | 15 | 5318.5 |
| 20260903133328 | 715 | 270 | 7.0 | 10.0 | 0.00 | 0.00 | 0.00 | 15 | 1799.3 |
| 20260903132318 | -19 | 270 | 6.0 | 9.0 | 0.00 | 0.00 | 0.00 | 16 | 5318.5 |
| 20260903132116 | -10 | 315 | 5.0 | 7.0 | 0.00 | 0.00 | 0.00 | 16 | 5318.5 |
| 20260903131913 | -31 | 270 | 7.0 | 10.0 | 0.00 | 0.00 | 0.00 | 16 | 5318.5 |
| 20260903131510 | -86 | 315 | 4.0 | 7.0 | 0.00 | 0.00 | 0.00 | 16 | 5318.5 |
| 20260903131105 | 101 | 315 | 8.0 | 10.0 | 0.00 | 0.00 | 0.00 | 16 | 5318.5 |
| 20260903130903 | 630 | 315 | 8.0 | 8.0 | 0.00 | 0.00 | 0.00 | 17 | 5318.5 |
| 20260903130500 | 118 | 270 | 4.0 | 9.0 | 0.00 | 0.00 | 0.00 | 17 | 5318.5 |
| 20260903130257 | 212 | 315 | 4.0 | 5.0 | 0.00 | 0.00 | 0.00 | 17 | 5318.5 |
| 20260903125449 | 322 | 270 | 10.0 | 10.0 | 0.00 | 0.00 | 0.00 | 18 | 5318.5 |
| 20260903124842 | -31 | 270 | 5.0 | 7.0 | 0.00 | 0.00 | 0.00 | 18 | 5318.5 |
| 20260903123633 | -15 | 315 | 5.0 | 8.0 | 0.00 | 0.00 | 0.00 | 19 | 5318.5 |
| 20260903122832 | 714 | 315 | 2.0 | 8.0 | 0.00 | 0.00 | 0.00 | 20 | 4420.7 |
| 20260903122225 | 155 | 270 | 6.0 | 9.0 | 0.00 | 0.00 | 0.00 | 20 | 5318.5 |
| 20260903121219 | -29 | 292 | 4.0 | 9.0 | 0.00 | 0.00 | 0.00 | 19 | 5318.5 |
| 20260903120609 | -27 | 315 | 10.0 | 10.0 | 0.00 | 0.00 | 0.00 | 20 | 5318.5 |
| 20260903120206 | 49 | 270 | 7.0 | 9.0 | 0.00 | 0.00 | 0.00 | 20 | 5318.5 |
| 20260903115357 | 715 | 292 | 5.0 | 5.0 | 0.00 | 0.00 | 0.00 | 20 | 1799.3 |
| 20260903115154 | 32 | 315 | 4.0 | 8.0 | 0.00 | 0.00 | 0.00 | 20 | 5318.5 |
| 20260903112528 | -24 | 315 | 5.0 | 9.0 | 0.00 | 0.00 | 0.00 | 21 | 5321.1 |
| 20260903104852 | 247 | 315 | 5.0 | 9.0 | 0.00 | 0.00 | 0.00 | 20 | 5318.5 |
| 20260903104446 | 715 | 315 | 9.0 | 9.0 | 0.00 | 0.00 | 0.00 | 20 | 1799.4 |
| 20260903104043 | -29 | 315 | 5.0 | 10.0 | 0.00 | 0.00 | 0.00 | 20 | 5318.5 |
| 20260903103234 | -18 | 281 | 6.0 | 8.0 | 0.00 | 0.00 | 0.00 | 19 | 5318.5 |
| 20260903102826 | -14 | 303 | 4.0 | 9.0 | 0.00 | 0.00 | 0.00 | 19 | 5318.5 |
| 20260903102423 | -90 | 270 | 5.0 | 8.0 | 0.00 | 0.00 | 0.00 | 20 | 5318.5 |
| 20260903101412 | 113 | 303 | 1.0 | 3.0 | 0.00 | 0.00 | 0.00 | 21 | 5318.5 |
| 20260903101009 | 168 | 337 | 2.0 | 5.0 | 0.00 | 0.00 | 0.00 | 22 | 5318.5 |
| 20260903100606 | 224 | 292 | 0.0 | 4.0 | 0.00 | 0.00 | 0.00 | 22 | 5318.5 |
| 20260903100402 | 715 | 315 | 0.0 | 4.0 | 0.00 | 0.00 | 0.00 | 22 | 1799.4 |
| 20260903095959 | -28 | 315 | 5.0 | 5.0 | 0.00 | 0.00 | 0.00 | 22 | 5318.5 |
| 20260903095757 | -32 | 315 | 3.0 | 5.0 | 0.00 | 0.00 | 0.00 | 22 | 5318.5 |
| 20260903095555 | -22 | 315 | 1.0 | 5.0 | 0.00 | 0.00 | 0.00 | 22 | 5318.5 |
| 20260903095352 | -26 | 270 | 3.0 | 5.0 | 0.00 | 0.00 | 0.00 | 22 | 5318.5 |
| 20260903094947 | -21 | 270 | 1.0 | 6.0 | 0.00 | 0.00 | 0.00 | 23 | 5318.5 |
| 20260903094543 | -15 | 270 | 4.0 | 7.0 | 0.00 | 0.00 | 0.00 | 23 | 5318.5 |
| 20260903094341 | -61 | 315 | 4.0 | 6.0 | 0.00 | 0.00 | 0.00 | 24 | 5318.5 |